Terminal Aerodrome Forecast
Issued by NWS Midland/Odessa, TX

Home | Current Version | Previous Version | Text Only | Print | Product List | Glossary On
Versions: 1 2 3 4 5 6 7 8 9 10 11 12 13 14 15 16 17 18 19 20 21 22
000
FTUS44 KMAF 201800 AAA
TAFMAF
TAF AMD
KMAF 201811Z 2018/2118 21010KT P6SM SCT050
     FM202000 21010G19KT P6SM SCT050
     FM210100 19011KT P6SM FEW250
      TEMPO 2111/2114 6SM BR BKN010=

USA.gov is the U.S. government's official web portal to all federal, state and local government web resources and services.